| time (UTC) | temp F | wind direction | speed knots | gust knots | rain 1hr in | rain 24hr in | rain mn in | humidity % | barometer mb |
| 20260902141554 | 85 | 300 | 6.1 | 9.6 | 0.00 | 0.00 | 0.00 | 11 | 1009.9 |
| 20260902140049 | 84 | 329 | 6.1 | 11.3 | 0.00 | 0.00 | 0.00 | 12 | 1009.7 |
| 20260902134552 | 81 | 290 | 3.5 | 7.0 | 0.00 | 0.00 | 0.00 | 15 | 1009.6 |
| 20260902133045 | 80 | 290 | 4.3 | 7.8 | 0.00 | 0.00 | 0.00 | 17 | 1009.4 |
| 20260902131545 | 80 | 302 | 5.2 | 7.8 | 0.00 | 0.00 | 0.00 | 18 | 1009.4 |
| 20260902130043 | 80 | 299 | 3.5 | 9.6 | 0.00 | 0.00 | 0.00 | 18 | 1009.4 |
| 20260902124541 | 81 | 288 | 5.2 | 9.6 | 0.00 | 0.00 | 0.00 | 17 | 1009.1 |
| 20260902123049 | 81 | 296 | 5.2 | 10.4 | 0.00 | 0.00 | 0.00 | 17 | 1009.0 |
| 20260902121537 | 80 | 286 | 2.6 | 8.7 | 0.00 | 0.00 | 0.00 | 17 | 1009.1 |
| 20260902120035 | 78 | 288 | 2.6 | 7.8 | 0.00 | 0.00 | 0.00 | 18 | 1009.1 |
| 20260902114538 | 79 | 317 | 0.9 | 3.5 | 0.00 | 0.00 | 0.00 | 18 | 1009.2 |
| 20260902113035 | 79 | 325 | 0.0 | 3.5 | 0.00 | 0.00 | 0.00 | 17 | 1009.3 |
| 20260902111528 | 80 | 312 | 1.7 | 5.2 | 0.00 | 0.00 | 0.00 | 17 | 1009.4 |
| 20260902110037 | 80 | 320 | 0.0 | 3.5 | 0.00 | 0.00 | 0.00 | 17 | 1009.3 |
| 20260902104522 | 81 | 320 | 0.9 | 3.5 | 0.00 | 0.00 | 0.00 | 16 | 1009.4 |
| 20260902103023 | 82 | 315 | 2.6 | 8.7 | 0.00 | 0.00 | 0.00 | 15 | 1009.4 |
| 20260902101524 | 83 | 315 | 3.5 | 10.4 | 0.00 | 0.00 | 0.00 | 15 | 1009.5 |
| 20260902100021 | 83 | 288 | 7.0 | 11.3 | 0.00 | 0.00 | 0.00 | 16 | 1009.3 |
| 20260902094523 | 82 | 295 | 6.1 | 9.6 | 0.00 | 0.00 | 0.00 | 16 | 1009.3 |
| 20260902093029 | 81 | 300 | 4.3 | 8.7 | 0.00 | 0.00 | 0.00 | 16 | 1009.3 |
| 20260902091514 | 82 | 301 | 2.6 | 7.8 | 0.00 | 0.00 | 0.00 | 15 | 1009.3 |
| 20260902090013 | 82 | 304 | 3.5 | 8.7 | 0.00 | 0.00 | 0.00 | 15 | 1009.5 |
| 20260902084513 | 83 | 340 | 6.1 | 12.2 | 0.00 | 0.00 | 0.00 | 15 | 1009.6 |
| 20260902083008 | 83 | 315 | 4.3 | 11.3 | 0.00 | 0.00 | 0.00 | 14 | 1009.7 |
| 20260902081507 | 84 | 292 | 7.0 | 11.3 | 0.00 | 0.00 | 0.00 | 14 | 1009.5 |
| 20260902080004 | 84 | 305 | 8.7 | 16.5 | 0.00 | 0.00 | 0.00 | 13 | 1009.6 |
| 20260902074501 | 84 | 267 | 10.4 | 16.5 | 0.00 | 0.00 | 0.00 | 13 | 1009.6 |
| 20260902071557 | 84 | 292 | 7.0 | 10.4 | 0.00 | 0.00 | 0.00 | 13 | 1009.9 |
| 20260902070054 | 84 | 289 | 4.3 | 11.3 | 0.00 | 0.00 | 0.00 | 12 | 1009.6 |
| 20260902064552 | 85 | 318 | 0.0 | 8.7 | 0.00 | 0.00 | 0.00 | 13 | 1009.5 |
| 20260902061559 | 86 | 303 | 3.5 | 9.6 | 0.00 | 0.00 | 0.00 | 12 | 1009.3 |
| 20260902060057 | 87 | 302 | 6.1 | 13.0 | 0.00 | 0.00 | 0.00 | 11 | 1008.7 |
| 20260902054606 | 87 | 290 | 8.7 | 13.0 | 0.00 | 0.00 | 0.00 | 12 | 1008.6 |
| 20260902051547 | 87 | 265 | 3.5 | 10.4 | 0.00 | 0.00 | 0.00 | 13 | 1009.1 |
| 20260902050046 | 88 | 262 | 7.8 | 13.0 | 0.00 | 0.00 | 0.00 | 12 | 1009.1 |
| 20260902044549 | 88 | 297 | 7.8 | 13.0 | 0.00 | 0.00 | 0.00 | 13 | 1009.1 |
| 20260902041549 | 89 | 265 | 8.7 | 15.6 | 0.00 | 0.00 | 0.00 | 12 | 1008.7 |
| 20260902040051 | 90 | 277 | 6.1 | 12.2 | 0.00 | 0.00 | 0.00 | 12 | 1008.7 |
| 20260902034548 | 90 | 250 | 6.1 | 13.9 | 0.00 | 0.00 | 0.00 | 12 | 1008.5 |
| 20260902031547 | 89 | 270 | 7.0 | 16.5 | 0.00 | 0.00 | 0.00 | 18 | 1008.4 |
| 20260902030046 | 90 | 284 | 12.2 | 20.0 | 0.00 | 0.00 | 0.00 | 18 | 1008.3 |
| 20260902024546 | 90 | 311 | 13.0 | 19.1 | 0.00 | 0.00 | 0.00 | 18 | 1008.1 |
| 20260902021544 | 92 | 315 | 8.7 | 15.6 | 0.00 | 0.00 | 0.00 | 20 | 1007.4 |
| 20260902020043 | 93 | 300 | 9.6 | 19.1 | 0.00 | 0.00 | 0.00 | 20 | 1007.3 |
| 20260902014544 | 94 | 300 | 9.6 | 19.1 | 0.00 | 0.00 | 0.00 | 20 | 1007.3 |
| 20260902011541 | 97 | 303 | 12.2 | 20.0 | 0.00 | 0.00 | 0.00 | 19 | 1006.9 |
| 20260902010040 | 98 | 298 | 10.4 | 18.2 | 0.00 | 0.00 | 0.00 | 18 | 1006.7 |
| 20260902004541 | 99 | 257 | 12.2 | 19.1 | 0.00 | 0.00 | 0.00 | 18 | 1006.9 |
| 20260902001559 | 101 | 275 | 10.4 | 19.1 | 0.00 | 0.00 | 0.00 | 18 | 1006.5 |
| 20260902000044 | 103 | 325 | 10.4 | 18.2 | 0.00 | 0.00 | 0.00 | 15 | 1006.5 |
| 20260901234540 | 103 | 277 | 11.3 | 20.9 | 0.00 | 0.00 | 0.00 | 15 | 1006.5 |
| 20260901231538 | 104 | 302 | 9.6 | 14.8 | 0.00 | 0.00 | 0.00 | 13 | 1006.8 |
| 20260901230038 | 103 | 304 | 7.8 | 15.6 | 0.00 | 0.00 | 0.00 | 13 | 1007.0 |
| 20260901224535 | 104 | 259 | 9.6 | 14.8 | 0.00 | 0.00 | 0.00 | 13 | 1007.0 |
| 20260901221542 | 106 | 282 | 7.0 | 20.0 | 0.00 | 0.00 | 0.00 | 12 | 1007.2 |
| 20260901220031 | 106 | 159 | 4.3 | 6.1 | 0.00 | 0.00 | 0.00 | 12 | 1007.5 |
| 20260901214528 | 104 | 196 | 7.0 | 10.4 | 0.00 | 0.00 | 0.00 | 12 | 1007.6 |
| 20260901211525 | 104 | 158 | 0.9 | 10.4 | 0.00 | 0.00 | 0.00 | 12 | 1007.9 |
| 20260901210024 | 104 | 116 | 6.1 | 11.3 | 0.00 | 0.00 | 0.00 | 12 | 1008.2 |
| 20260901204522 | 104 | 93 | 3.5 | 8.7 | 0.00 | 0.00 | 0.00 | 11 | 1008.3 |
| 20260901201519 | 104 | 198 | 2.6 | 7.0 | 0.00 | 0.00 | 0.00 | 12 | 1008.8 |
| 20260901200018 | 104 | 113 | 1.7 | 4.3 | 0.00 | 0.00 | 0.00 | 12 | 1008.8 |
| 20260901194515 | 103 | 125 | 2.6 | 7.0 | 0.00 | 0.00 | 0.00 | 11 | 1008.9 |
| 20260901191516 | 101 | 105 | 1.7 | 7.8 | 0.00 | 0.00 | 0.00 | 12 | 1009.2 |
| 20260901190008 | 101 | 195 | 6.1 | 14.8 | 0.00 | 0.00 | 0.00 | 11 | 1009.5 |
| 20260901184505 | 100 | 119 | 1.7 | 9.6 | 0.00 | 0.00 | 0.00 | 12 | 1009.8 |
| 20260901181605 | 100 | 204 | 2.6 | 7.8 | 0.00 | 0.00 | 0.00 | 11 | 1010.1 |
| 20260901180054 | 100 | 189 | 2.6 | 7.0 | 0.00 | 0.00 | 0.00 | 11 | 1010.1 |
| 20260901174550 | 99 | 264 | 0.0 | 7.0 | 0.00 | 0.00 | 0.00 | 11 | 1010.1 |
| 20260901171549 | 98 | 327 | 0.9 | 4.3 | 0.00 | 0.00 | 0.00 | 12 | 1010.1 |
| 20260901170043 | 96 | 273 | 0.9 | 8.7 | 0.00 | 0.00 | 0.00 | 11 | 1010.0 |
| 20260901164542 | 96 | 224 | 4.3 | 7.8 | 0.00 | 0.00 | 0.00 | 11 | 1009.9 |
| 20260901161547 | 94 | 302 | 7.0 | 10.4 | 0.00 | 0.00 | 0.00 | 11 | 1009.7 |
| 20260901160021 | 94 | 215 | 0.0 | 9.6 | 0.00 | 0.00 | 0.00 | 12 | 1009.4 |
| 20260901154517 | 93 | 240 | 5.2 | 9.6 | 0.00 | 0.00 | 0.00 | 12 | 1009.5 |
| 20260901151511 | 91 | 243 | 5.2 | 11.3 | 0.00 | 0.00 | 0.00 | 11 | 1009.2 |
| 20260901150006 | 90 | 257 | 5.2 | 11.3 | 0.00 | 0.00 | 0.00 | 12 | 1009.4 |
| 20260901144502 | 89 | 271 | 5.2 | 9.6 | 0.00 | 0.00 | 0.00 | 11 | 1009.2 |